Location: Eschertshofen
(49.3064°N, 11.5756°E)
Time: 22:33:31
(UTC+00:00)

USA 234 - Pass Details

Date: 18 September 2020
Orbit: 1102 x 1106 km, 123.0° (Epoch: 16 October)

Event Time Altitude Azimuth Distance (km) Brightness Sun altitude
Rises 18:32:56 0° 58° (ENE) 3,927 5.8 -12.6°
Reaches altitude 10° 18:35:43 10° 67° (ENE) 2,967 5.1 -13.0°
Maximum altitude 18:41:32 33° 130° (SE) 1,755 3.8 -13.9°
Drops below altitude 10° 18:47:20 10° 193° (SSW) 2,956 5.4 -14.8°
Sets 18:50:05 0° 203° (SSW) 3,911 6.2 -15.2°
